User: anonymous   Login
Location: Arrien
(42.8963°N, 1.0429°E)
Time: 08:18:15
(UTC+00:00)
Language:

Cosmos 2227 Rocket - Orbit

View from above orbital plane
View from above orbital plane
View from above satellite
View from above satellite

Ground track
Ground track

The orbit is defined by the following mean orbital elements,

1 22285U          26039.12867558 +.00000000 +00000-0 -37793-4 0 00008
2 22285  71.0201  66.3244 0005127 324.6897  35.3885 14.15440992    02
Epoch (UTC): 08 February 2026 03:05:17
Eccentricity: 0.0005127
inclination: 71.0201°
perigee height: 837 km
apogee height: 845 km
right ascension of ascending node: 66.3244°
argument of perigee: 324.6897°
revolutions per day: 14.15440992
mean anomaly at epoch: 35.3885°

The dashed part of the orbit path shows where the satellite is in the earth's shadow,  

DLR